This is the latest recevied weather packets stored in our database for station/object VK2KGV-15. If no packets are shown the sender has not sent any weather packets the latest 10 day(s).
| Time | Temp. | Humidity | Pressure | Rain* | Wind** | Luminosity | Snow |
|---|---|---|---|---|---|---|---|
| 1788531740 | 7.22° C | 76% | 1021.9 hPa | 0 mm | - | - | - |
| 1788530534 | 6.67° C | 75% | 1021.9 hPa | 0 mm | - | - | - |
| 1788529327 | 7.22° C | 73% | 1021.9 hPa | 0 mm | - | - | - |
| 1788528121 | 7.22° C | 74% | 1021.9 hPa | 0 mm | - | - | - |
| 1788526915 | 7.78° C | 72% | 1022 hPa | 0 mm | - | - | - |
| 1788525709 | 8.33° C | 70% | 1021.9 hPa | 0 mm | - | - | - |
| 1788521487 | 8.89° C | 66% | 1022 hPa | 0 mm | - | - | - |
| 1788516059 | 10.56° C | 59% | 1021.1 hPa | 0 mm | - | - | - |
| 1788514853 | 11.11° C | 57% | 1020.7 hPa | 0 mm | - | - | - |
| 1788513647 | 11.67° C | 55% | 1020.4 hPa | 0 mm | - | - | - |
| 1788512440 | 12.78° C | 53% | 1020 hPa | 0 mm | - | - | - |
| 1788511234 | 13.89° C | 51% | 1019.8 hPa | 0 mm | - | - | - |
| 1788510028 | 15° C | 47% | 1019.4 hPa | 0 mm | - | - | - |
| 1788508825 | 17.22° C | 41% | 1018.9 hPa | 0 mm | - | - | - |
| 1788507616 | 20° C | 35% | 1018.2 hPa | 0 mm | - | - | - |
| 1788506409 | 21.67° C | 32% | 1017.8 hPa | 0 mm | - | - | - |
| 1788505203 | 22.22° C | 30% | 1017.6 hPa | 0 mm | - | - | - |
| 1788501585 | 25° C | 27% | 1017.3 hPa | 0 mm | - | - | - |
| 1788500982 | 25° C | 27% | 1017.1 hPa | 0 mm | - | - | - |
| 1788500378 | 25.56° C | 27% | 1017.1 hPa | 0 mm | - | - | - |
| 1788499775 | 25° C | 26% | 1017.1 hPa | 0 mm | - | - | - |
| 1788499172 | 25.56° C | 24% | 1017.1 hPa | 0 mm | - | - | - |
| 1788497966 | 25.56° C | 25% | 1017.1 hPa | 0 mm | - | - | - |
| 1788496760 | 25.56° C | 25% | 1017.2 hPa | 0 mm | - | - | - |
| 1788495553 | 25° C | 28% | 1017.5 hPa | 0 mm | - | - | - |
* Rain since midnight (hover to see other rain measurements)
** Current wind speed in m/s (hover to see current wind gust speed)